Regional Weather Roundup
Issued by NWS

Home | Current Version | Previous Version | Graphics & Text | Print | Product List | Glossary On
Versions: 1 2 3 4 5 6 7 8 9 10 11 12 13 14 15 16 17 18 19 20 21 22 23 24 25 26 27 28 29 30 31 32 33 34 35 36 37 38 39 40 41 42 43 44 45 46 47 48 49 50
000
ASUS45 KPSR 251700
RWRAZ

PRELIMINARY ARIZONA REGIONAL HOURLY WEATHER ROUNDUP
NATIONAL WEATHER SERVICE PHOENIX AZ
1000 AM MST SAT OCT 25 2014

NOTE: FAIR INDICATES FEW OR NO CLOUDS BELOW 12,000 FEET WITH NO
SIGNIFICANT WEATHER AND/OR OBSTRUCTIONS TO VISIBILITY.

AZZ001>003-036-251800-
NORTHWEST ARIZONA

CITY           SKY/WX    TMP DP  RH WIND       PRES   REMARKS
KINGMAN        SUNNY     76  43  30 W3        30.16R
$$

AZZ004>008-015-016-018-251800-
NORTH CENTRAL ARIZONA

CITY           SKY/WX    TMP DP  RH WIND       PRES   REMARKS
GRAND CANYON   SUNNY     65  39  38 S10G17    30.35S
PRESCOTT       MOSUNNY   71  42  35 CALM      30.27S
FLAGSTAFF      SUNNY     64  41  42 SW10G21   30.38F
PAGE           SUNNY     64  33  31 NW6       30.23F
$$

AZZ009>014-017-251800-
NORTHEAST ARIZONA

CITY           SKY/WX    TMP DP  RH WIND       PRES   REMARKS
WINSLOW        NOT AVBL
SAINT JOHNS    SUNNY     64  39  39 CALM      30.33F
WINDOW ROCK    SUNNY     65  33  30 CALM      30.39F
$$

AZZ023-251800-
GREATER PHOENIX AREA

CITY           SKY/WX    TMP DP  RH WIND       PRES   REMARKS
PHOENIX        MOSUNNY   83  49  30 SE9       30.03S
GLENDALE       MOSUNNY   81  50  34 N5        30.05S
DEER VALLEY    MOSUNNY   81  49  32 CALM      30.05S
SCOTTSDALE     SUNNY     81  50  33 CALM      30.06F
MESA-GATEWAY   MOSUNNY   79  50  36 NW5       30.07F
CHANDLER       MOSUNNY   77  52  41 CALM      30.05F
$$

AZZ027-028-251800-
SOUTHWEST MARICOPA COUNTY AND PINAL COUNTY

CITY           SKY/WX    TMP DP  RH WIND       PRES   REMARKS
CASA GRANDE    SUNNY     81  48  32 CALM      30.05F
$$

AZZ503-504-507>509-251800-
SOUTHEAST ARIZONA

CITY           SKY/WX    TMP DP  RH WIND       PRES   REMARKS
TUCSON         SUNNY     79  49  34 CALM      30.13F
DAVIS-MONTHAN  SUNNY     82  47  29 E5        30.11F
RYAN FIELD       N/A     81  52  36 E123      30.12F
NOGALES        SUNNY     77  48  35 CALM      30.20F
SIERRA VISTA   SUNNY     78  45  30 VRB3      30.27S
SAFFORD        SUNNY     75  44  33 SE12      30.19F
$$

AZZ020-021-025-026-031-251800-
SOUTHWEST ARIZONA

CITY           SKY/WX    TMP DP  RH WIND       PRES   REMARKS
YUMA           MOSUNNY   83  49  30 N3        29.97S
$$

CAZ031-033-041-043-047-048-061-251800-
SOUTHERN CALIFORNIA

CITY           SKY/WX    TMP DP  RH WIND       PRES   REMARKS
DOWNTOWN L.A.  MOSUNNY   72  58  61 CALM      30.04S
L.A. AIRPORT   MOSUNNY   70  64  80 S3        30.05R
SAN DIEGO      PTSUNNY   72  64  76 NW3       30.08R
BURBANK        MOSUNNY   71  43  36 CALM      30.05R
ONTARIO        MOSUNNY   75  42  30 SW3       30.06R
RIVERSIDE      SUNNY     72  42  34 SW3       30.07R
PALM SPRINGS   MOSUNNY   85  46  25 SE6       29.99F
EL CENTRO NAS  MOSUNNY   84  49  29 SW3       29.97R
IMPERIAL       MOSUNNY   83  49  30 NW3       29.97R
BLYTHE         SUNNY     81  44  27 S3        30.00R
$$

NVZ020-UTZ003-251800-
SOUTHERN NEVADA-UTAH

CITY           SKY/WX    TMP DP  RH WIND       PRES   REMARKS
LAS VEGAS      NOT AVBL
SALT LAKE CITY SUNNY     70  31  23 S15       30.06F
$$

NMZ009-TXZ055-251800-
NEW MEXICO-WEST TEXAS

CITY           SKY/WX    TMP DP  RH WIND       PRES   REMARKS
ALBUQUERQUE    SUNNY     62  34  35 CALM      30.34S
EL PASO        SUNNY     70  49  47 CALM      30.26S
$$


........................KEY........................
SKY/WX - SKY CONDITION/WEATHER
TMP    - TEMPERATURE IN FAHRENHEIT
DP     - DEW POINT IN FAHRENHEIT
RH     - RELATIVE HUMIDITY IN PERCENT
WIND   - DIRECTION AND SPEED IN MILES PER HOUR (MPH)
VRB    - VARIABLE WIND DIRECTION
PRES   - MEAN SEA LEVEL PRESSURE IN INCHES OF MERCURY
         F - FALLING PRESSURE   R - RISING PRESSURE
         S - STEADY PRESSURE
VSB    - VISIBILITY IN MILES
HX     - HEAT INDEX IN FAHRENHEIT
WCI    - WIND CHILL INDEX IN FAHRENHEIT
TC     - TEMPERATURE IN CELSIUS WHICH IS ALSO KNOWN AS
         TEMPERATURE IN CENTIGRADE
AFB    - AIR FORCE BASE
         LUKE AFB IS LUKE AIR FORCE BASE
         DAVIS-MONTHAN IS DAVIS-MONTHAN AIR FORCE BASE
NAS    - NAVAL AIR STATION
         EL CENTRO NAS IS EL CENTRO NAVAL AIR STATION
N/A    - NOT AVAILABLE



USA.gov is the U.S. government's official web portal to all federal, state and local government web resources and services.